| time (UTC) | temp F | wind direction | speed knots | gust knots | rain 1hr in | rain 24hr in | rain mn in | humidity % | barometer mb |
| 20260505214803 | 49 | 8 | 0.0 | 0.9 | 0.00 | 0.00 | 0.00 | 80 | 1013.8 |
| 20260505214303 | 49 | 26 | 0.0 | 0.9 | 0.00 | 0.00 | 0.00 | 80 | 1013.8 |
| 20260505213803 | 49 | 355 | 0.0 | 1.7 | 0.00 | 0.00 | 0.00 | 79 | 1013.9 |
| 20260505213303 | 49 | 343 | 0.0 | 0.9 | 0.00 | 0.00 | 0.00 | 79 | 1013.9 |
| 20260505212803 | 49 | 338 | 0.0 | 3.5 | 0.00 | 0.00 | 0.00 | 79 | 1013.9 |
| 20260505212305 | 49 | 335 | 0.0 | 1.7 | 0.00 | 0.00 | 0.00 | 79 | 1013.8 |
| 20260505211803 | 49 | 256 | 0.0 | 0.9 | 0.00 | 0.00 | 0.00 | 79 | 1013.8 |
| 20260505211303 | 49 | 327 | 0.0 | 0.9 | 0.00 | 0.00 | 0.00 | 79 | 1013.9 |
| 20260505210803 | 49 | 8 | 0.0 | 0.9 | 0.00 | 0.00 | 0.00 | 79 | 1013.9 |
| 20260505210303 | 50 | 5 | 0.0 | 1.7 | 0.00 | 0.00 | 0.00 | 79 | 1013.8 |
| 20260505205803 | 50 | 307 | 0.0 | 1.7 | 0.00 | 0.00 | 0.00 | 79 | 1013.8 |
| 20260505205305 | 50 | 11 | 0.0 | 1.7 | 0.00 | 0.00 | 0.00 | 78 | 1013.8 |
| 20260505204803 | 50 | 330 | 0.0 | 1.7 | 0.00 | 0.00 | 0.00 | 78 | 1013.8 |
| 20260505204303 | 50 | 38 | 0.0 | 0.9 | 0.00 | 0.00 | 0.00 | 78 | 1013.7 |
| 20260505203803 | 50 | 316 | 0.0 | 2.6 | 0.00 | 0.00 | 0.00 | 78 | 1013.8 |
| 20260505203303 | 50 | 285 | 0.0 | 3.5 | 0.00 | 0.00 | 0.00 | 78 | 1013.7 |
| 20260505202803 | 50 | 3 | 0.0 | 1.7 | 0.00 | 0.00 | 0.00 | 78 | 1013.7 |
| 20260505202306 | 50 | 194 | 0.0 | 1.7 | 0.00 | 0.00 | 0.00 | 77 | 1013.7 |
| 20260505201803 | 50 | 9 | 0.0 | 4.3 | 0.00 | 0.00 | 0.00 | 77 | 1013.7 |
| 20260505201303 | 50 | 358 | 0.0 | 3.5 | 0.00 | 0.00 | 0.00 | 77 | 1013.6 |
| 20260505200803 | 50 | 99 | 0.0 | 0.9 | 0.00 | 0.00 | 0.00 | 77 | 1013.7 |
| 20260505200303 | 50 | 299 | 0.0 | 0.9 | 0.00 | 0.00 | 0.00 | 77 | 1013.7 |
| 20260505195803 | 51 | 337 | 0.0 | 0.9 | 0.00 | 0.00 | 0.00 | 77 | 1013.7 |
| 20260505195305 | 51 | 8 | 0.0 | 1.7 | 0.00 | 0.00 | 0.00 | 76 | 1013.8 |
| 20260505194803 | 51 | 3 | 0.0 | 2.6 | 0.00 | 0.00 | 0.00 | 76 | 1013.5 |
| 20260505194303 | 51 | 309 | 0.0 | 0.9 | 0.00 | 0.00 | 0.00 | 76 | 1013.5 |
| 20260505193803 | 51 | 335 | 0.9 | 1.7 | 0.00 | 0.00 | 0.00 | 76 | 1013.1 |
| 20260505193303 | 51 | 11 | 0.9 | 5.2 | 0.00 | 0.00 | 0.00 | 75 | 1013.2 |
| 20260505192803 | 51 | 349 | 0.0 | 4.3 | 0.00 | 0.00 | 0.00 | 76 | 1013.1 |
| 20260505192305 | 51 | 346 | 0.0 | 2.6 | 0.00 | 0.00 | 0.00 | 76 | 1013.2 |
| 20260505191803 | 52 | 14 | 0.0 | 3.5 | 0.00 | 0.00 | 0.00 | 76 | 1013.2 |
| 20260505191303 | 52 | 155 | 0.0 | 2.6 | 0.00 | 0.00 | 0.00 | 76 | 1013.3 |
| 20260505190803 | 52 | 349 | 0.0 | 1.7 | 0.00 | 0.00 | 0.00 | 76 | 1013.3 |
| 20260505190303 | 52 | 7 | 0.0 | 2.6 | 0.00 | 0.00 | 0.00 | 75 | 1013.3 |
| 20260505185803 | 52 | 340 | 0.0 | 2.6 | 0.00 | 0.00 | 0.00 | 75 | 1013.3 |
| 20260505185305 | 53 | 30 | 0.0 | 1.7 | 0.00 | 0.00 | 0.00 | 74 | 1013.3 |
| 20260505184803 | 53 | 19 | 0.0 | 3.5 | 0.00 | 0.00 | 0.00 | 74 | 1013.2 |
| 20260505184303 | 53 | 29 | 0.0 | 1.7 | 0.00 | 0.00 | 0.00 | 73 | 1013.2 |
| 20260505183803 | 53 | 22 | 0.0 | 0.9 | 0.00 | 0.00 | 0.00 | 73 | 1013.2 |
| 20260505183303 | 53 | 330 | 0.9 | 3.5 | 0.00 | 0.00 | 0.00 | 72 | 1013.3 |
| 20260505182803 | 53 | 327 | 0.0 | 2.6 | 0.00 | 0.00 | 0.00 | 72 | 1013.2 |
| 20260505182305 | 53 | 359 | 0.0 | 3.5 | 0.00 | 0.00 | 0.00 | 72 | 1013.2 |
| 20260505181803 | 54 | 250 | 0.0 | 0.9 | 0.00 | 0.00 | 0.00 | 72 | 1013.3 |
| 20260505181303 | 54 | 352 | 0.0 | 1.7 | 0.00 | 0.00 | 0.00 | 72 | 1013.3 |
| 20260505180803 | 54 | 270 | 0.0 | 1.7 | 0.00 | 0.00 | 0.00 | 72 | 1013.3 |
| 20260505180303 | 54 | 34 | 0.0 | 2.6 | 0.00 | 0.00 | 0.00 | 71 | 1013.4 |
| 20260505175803 | 54 | 3 | 0.0 | 2.6 | 0.00 | 0.00 | 0.00 | 70 | 1013.4 |
| 20260505175305 | 54 | 314 | 0.0 | 3.5 | 0.00 | 0.00 | 0.00 | 69 | 1013.3 |
| 20260505174803 | 54 | 326 | 0.9 | 3.5 | 0.00 | 0.00 | 0.00 | 69 | 1013.2 |
| 20260505174303 | 55 | 15 | 0.9 | 5.2 | 0.00 | 0.00 | 0.00 | 69 | 1013.3 |
| 20260505173803 | 55 | 282 | 0.0 | 2.6 | 0.00 | 0.00 | 0.00 | 70 | 1013.4 |
| 20260505173303 | 56 | 284 | 0.0 | 2.6 | 0.00 | 0.00 | 0.00 | 68 | 1013.3 |
| 20260505172803 | 56 | 269 | 0.0 | 2.6 | 0.00 | 0.00 | 0.00 | 70 | 1013.2 |
| 20260505172305 | 56 | 3 | 0.9 | 4.3 | 0.00 | 0.00 | 0.00 | 69 | 1013.2 |
| 20260505171803 | 56 | 347 | 0.9 | 3.5 | 0.00 | 0.00 | 0.00 | 69 | 1013.3 |
| 20260505171303 | 56 | 13 | 0.9 | 3.5 | 0.00 | 0.00 | 0.00 | 67 | 1013.4 |
| 20260505170803 | 56 | 346 | 0.9 | 4.3 | 0.00 | 0.00 | 0.00 | 63 | 1013.3 |
| 20260505170303 | 56 | 304 | 0.0 | 0.9 | 0.00 | 0.00 | 0.00 | 65 | 1013.3 |
| 20260505165803 | 56 | 356 | 0.9 | 2.6 | 0.00 | 0.00 | 0.00 | 64 | 1013.4 |
| 20260505165306 | 56 | 311 | 0.0 | 3.5 | 0.00 | 0.00 | 0.00 | 64 | 1013.3 |
| 20260505164803 | 56 | 347 | 0.0 | 2.6 | 0.00 | 0.00 | 0.00 | 64 | 1013.3 |
| 20260505164303 | 56 | 336 | 0.0 | 1.7 | 0.00 | 0.00 | 0.00 | 65 | 1013.4 |
| 20260505163803 | 56 | 338 | 0.0 | 3.5 | 0.00 | 0.00 | 0.00 | 63 | 1013.4 |
| 20260505163303 | 56 | 243 | 0.0 | 1.7 | 0.00 | 0.00 | 0.00 | 66 | 1013.2 |
| 20260505162803 | 56 | 359 | 0.0 | 0.9 | 0.00 | 0.00 | 0.00 | 68 | 1013.2 |
| 20260505162306 | 56 | 5 | 0.9 | 2.6 | 0.00 | 0.00 | 0.00 | 67 | 1013.3 |
| 20260505161803 | 56 | 342 | 0.9 | 4.3 | 0.00 | 0.00 | 0.00 | 66 | 1013.2 |
| 20260505161303 | 56 | 317 | 0.0 | 4.3 | 0.00 | 0.00 | 0.00 | 68 | 1013.3 |
| 20260505160803 | 56 | 260 | 0.0 | 0.9 | 0.00 | 0.00 | 0.00 | 68 | 1013.3 |
| 20260505160303 | 55 | 267 | 0.9 | 2.6 | 0.00 | 0.00 | 0.00 | 68 | 1013.3 |
| 20260505153303 | 56 | 234 | 0.0 | 3.5 | 0.00 | 0.00 | 0.00 | 68 | 1013.5 |
| 20260505152803 | 56 | 355 | 0.0 | 2.6 | 0.00 | 0.00 | 0.00 | 68 | 1013.4 |
| 20260505152305 | 56 | 242 | 0.0 | 2.6 | 0.00 | 0.00 | 0.00 | 69 | 1013.5 |
| 20260505151803 | 56 | 349 | 0.0 | 0.9 | 0.00 | 0.00 | 0.00 | 69 | 1013.6 |
| 20260505151303 | 56 | 288 | 0.9 | 2.6 | 0.00 | 0.00 | 0.00 | 69 | 1013.5 |
| 20260505150803 | 56 | 257 | 0.9 | 4.3 | 0.00 | 0.00 | 0.00 | 69 | 1013.7 |
| 20260505150303 | 56 | 280 | 0.9 | 4.3 | 0.00 | 0.00 | 0.00 | 68 | 1013.7 |
| 20260505140303 | 58 | 334 | 0.9 | 4.3 | 0.00 | 0.00 | 0.00 | 61 | 1013.9 |
| 20260505130304 | 58 | 41 | 0.9 | 4.3 | 0.00 | 0.00 | 0.00 | 62 | 1013.9 |
| 20260505124804 | 58 | 345 | 0.9 | 7.0 | 0.00 | 0.00 | 0.00 | 60 | 1013.8 |
| 20260505124304 | 58 | 18 | 1.7 | 7.0 | 0.00 | 0.00 | 0.00 | 59 | 1013.8 |
| 20260505123804 | 59 | 88 | 0.9 | 5.2 | 0.00 | 0.00 | 0.00 | 58 | 1013.7 |
| 20260505123304 | 59 | 30 | 0.9 | 4.3 | 0.00 | 0.00 | 0.00 | 60 | 1013.8 |
| 20260505122804 | 59 | 356 | 0.0 | 2.6 | 0.00 | 0.00 | 0.00 | 58 | 1013.7 |
| 20260505122305 | 59 | 1 | 0.9 | 1.7 | 0.00 | 0.00 | 0.00 | 59 | 1013.8 |
| 20260505121804 | 58 | 64 | 0.9 | 4.3 | 0.00 | 0.00 | 0.00 | 58 | 1013.8 |
| 20260505121304 | 59 | 305 | 0.9 | 4.3 | 0.00 | 0.00 | 0.00 | 57 | 1013.8 |
| 20260505120804 | 60 | 42 | 1.7 | 7.8 | 0.00 | 0.00 | 0.00 | 55 | 1013.7 |
| 20260505120304 | 60 | 32 | 0.9 | 4.3 | 0.00 | 0.00 | 0.00 | 58 | 1013.7 |
| 20260505115804 | 60 | 280 | 0.9 | 4.3 | 0.00 | 0.00 | 0.00 | 61 | 1013.6 |
| 20260505115305 | 59 | 349 | 0.9 | 2.6 | 0.00 | 0.00 | 0.00 | 58 | 1013.9 |
| 20260505114804 | 59 | 288 | 0.9 | 7.8 | 0.00 | 0.00 | 0.00 | 58 | 1013.8 |
| 20260505114304 | 61 | 161 | 0.9 | 4.3 | 0.00 | 0.00 | 0.00 | 56 | 1013.8 |
| 20260505113804 | 61 | 286 | 0.9 | 4.3 | 0.00 | 0.00 | 0.00 | 62 | 1014.0 |
| 20260505113304 | 61 | 276 | 0.9 | 4.3 | 0.00 | 0.00 | 0.00 | 57 | 1013.9 |
| 20260505112804 | 60 | 39 | 0.9 | 3.5 | 0.00 | 0.00 | 0.00 | 60 | 1014.1 |
| 20260505112305 | 60 | 238 | 1.7 | 5.2 | 0.00 | 0.00 | 0.00 | 59 | 1014.1 |
| 20260505111804 | 60 | 270 | 0.9 | 7.8 | 0.00 | 0.00 | 0.00 | 58 | 1014.1 |
| 20260505111304 | 60 | 4 | 0.9 | 7.0 | 0.00 | 0.00 | 0.00 | 61 | 1014.0 |
| 20260505110804 | 59 | 295 | 0.9 | 3.5 | 0.00 | 0.00 | 0.00 | 62 | 1013.9 |
| 20260505110304 | 58 | 97 | 0.9 | 4.3 | 0.00 | 0.00 | 0.00 | 62 | 1014.0 |
| 20260505101804 | 58 | 347 | 2.6 | 7.0 | 0.00 | 0.00 | 0.00 | 66 | 1014.1 |
| 20260505101304 | 57 | 4 | 2.6 | 7.8 | 0.00 | 0.00 | 0.00 | 62 | 1014.2 |
| 20260505100804 | 58 | 254 | 1.7 | 7.8 | 0.00 | 0.00 | 0.00 | 64 | 1014.2 |
| 20260505100304 | 58 | 338 | 0.9 | 7.0 | 0.00 | 0.00 | 0.00 | 64 | 1014.0 |
| 20260505095804 | 57 | 259 | 1.7 | 6.1 | 0.00 | 0.00 | 0.00 | 64 | 1014.1 |
| 20260505095305 | 57 | 98 | 1.7 | 6.1 | 0.00 | 0.00 | 0.00 | 64 | 1014.3 |
| 20260505094804 | 57 | 337 | 0.9 | 5.2 | 0.00 | 0.00 | 0.00 | 65 | 1014.1 |
| 20260505094304 | 57 | 11 | 0.9 | 5.2 | 0.00 | 0.00 | 0.00 | 68 | 1014.2 |
| 20260505093804 | 56 | 342 | 0.9 | 3.5 | 0.00 | 0.00 | 0.00 | 69 | 1014.1 |
| 20260505093304 | 56 | 235 | 0.9 | 6.1 | 0.00 | 0.00 | 0.00 | 69 | 1014.2 |
| 20260505092804 | 56 | 102 | 1.7 | 5.2 | 0.00 | 0.00 | 0.00 | 68 | 1014.3 |
| 20260505092305 | 55 | 258 | 1.7 | 7.8 | 0.00 | 0.00 | 0.00 | 69 | 1014.2 |
| 20260505091804 | 55 | 218 | 0.9 | 7.8 | 0.00 | 0.00 | 0.00 | 68 | 1014.3 |
| 20260505091304 | 55 | 273 | 0.9 | 3.5 | 0.00 | 0.00 | 0.00 | 71 | 1014.3 |
| 20260505090804 | 55 | 151 | 0.9 | 4.3 | 0.00 | 0.00 | 0.00 | 70 | 1014.2 |
| 20260505090304 | 55 | 44 | 0.9 | 4.3 | 0.00 | 0.00 | 0.00 | 69 | 1014.2 |
| 20260505085804 | 54 | 11 | 0.9 | 6.1 | 0.00 | 0.00 | 0.00 | 73 | 1014.2 |
| 20260505085305 | 54 | 352 | 0.9 | 4.3 | 0.00 | 0.00 | 0.00 | 71 | 1014.2 |
| 20260505084804 | 54 | 10 | 1.7 | 4.3 | 0.00 | 0.00 | 0.00 | 71 | 1014.2 |
| 20260505084304 | 53 | 103 | 0.9 | 5.2 | 0.00 | 0.00 | 0.00 | 71 | 1014.2 |
| 20260505083804 | 54 | 356 | 0.9 | 4.3 | 0.00 | 0.00 | 0.00 | 73 | 1014.3 |
| 20260505083304 | 53 | 93 | 0.9 | 5.2 | 0.00 | 0.00 | 0.00 | 73 | 1014.2 |
| 20260505082804 | 54 | 359 | 0.9 | 5.2 | 0.00 | 0.00 | 0.00 | 73 | 1014.3 |
| 20260505082305 | 53 | 31 | 1.7 | 6.1 | 0.00 | 0.00 | 0.00 | 73 | 1014.3 |
| 20260505081804 | 52 | 331 | 1.7 | 4.3 | 0.00 | 0.00 | 0.00 | 74 | 1014.5 |
| 20260505081304 | 52 | 326 | 0.9 | 6.1 | 0.00 | 0.00 | 0.00 | 74 | 1014.4 |
| 20260505080804 | 51 | 18 | 0.9 | 3.5 | 0.00 | 0.00 | 0.00 | 75 | 1014.4 |
| 20260505080304 | 51 | 293 | 0.9 | 6.1 | 0.00 | 0.00 | 0.00 | 76 | 1014.3 |
| 20260505075804 | 50 | 350 | 0.9 | 5.2 | 0.00 | 0.00 | 0.00 | 76 | 1014.4 |
| 20260505075304 | 50 | 4 | 0.9 | 4.3 | 0.00 | 0.00 | 0.00 | 76 | 1014.4 |
| 20260505074804 | 50 | 335 | 1.7 | 5.2 | 0.00 | 0.00 | 0.00 | 76 | 1014.4 |
| 20260505074304 | 50 | 352 | 1.7 | 7.8 | 0.00 | 0.00 | 0.00 | 76 | 1014.4 |
| 20260505073804 | 49 | 326 | 1.7 | 3.5 | 0.00 | 0.00 | 0.00 | 77 | 1014.5 |
| 20260505073304 | 49 | 333 | 0.9 | 4.3 | 0.00 | 0.00 | 0.00 | 78 | 1014.6 |
| 20260505072804 | 49 | 20 | 0.9 | 5.2 | 0.00 | 0.00 | 0.00 | 79 | 1014.5 |
| 20260505072305 | 49 | 1 | 0.9 | 4.3 | 0.00 | 0.00 | 0.00 | 79 | 1014.6 |
| 20260505071804 | 49 | 28 | 0.9 | 4.3 | 0.00 | 0.00 | 0.00 | 80 | 1014.7 |
| 20260505071304 | 49 | 32 | 0.9 | 3.5 | 0.00 | 0.00 | 0.00 | 80 | 1014.7 |
| 20260505070804 | 49 | 359 | 0.9 | 4.3 | 0.00 | 0.00 | 0.00 | 80 | 1014.7 |
| 20260505070304 | 49 | 96 | 0.9 | 4.3 | 0.00 | 0.00 | 0.00 | 80 | 1014.6 |
| 20260505065804 | 49 | 23 | 0.9 | 3.5 | 0.00 | 0.00 | 0.00 | 80 | 1014.5 |
| 20260505065304 | 48 | 25 | 0.9 | 2.6 | 0.00 | 0.00 | 0.00 | 81 | 1014.6 |
| 20260505064804 | 48 | 245 | 0.9 | 4.3 | 0.00 | 0.00 | 0.00 | 81 | 1014.8 |
| 20260505064304 | 48 | 358 | 0.9 | 3.5 | 0.00 | 0.00 | 0.00 | 81 | 1014.7 |
| 20260505063804 | 48 | 4 | 0.9 | 3.5 | 0.00 | 0.00 | 0.00 | 82 | 1014.7 |
| 20260505063304 | 48 | 13 | 0.9 | 2.6 | 0.00 | 0.00 | 0.00 | 83 | 1014.6 |
| 20260505062804 | 48 | 349 | 0.9 | 4.3 | 0.00 | 0.00 | 0.00 | 83 | 1014.7 |
| 20260505062304 | 48 | 26 | 0.0 | 1.7 | 0.00 | 0.00 | 0.00 | 83 | 1014.7 |
| 20260505061804 | 48 | 306 | 0.9 | 3.5 | 0.00 | 0.00 | 0.00 | 83 | 1014.7 |
| 20260505061304 | 48 | 4 | 0.9 | 2.6 | 0.00 | 0.00 | 0.00 | 83 | 1014.8 |
| 20260505060804 | 48 | 296 | 0.0 | 2.6 | 0.00 | 0.00 | 0.00 | 83 | 1014.8 |
| 20260505060304 | 48 | 9 | 0.9 | 0.9 | 0.00 | 0.00 | 0.00 | 84 | 1014.8 |
| 20260505055804 | 48 | 330 | 0.9 | 3.5 | 0.00 | 0.00 | 0.00 | 84 | 1014.7 |
| 20260505055304 | 47 | 358 | 0.9 | 4.3 | 0.00 | 0.00 | 0.00 | 84 | 1014.8 |
| 20260505054804 | 47 | 49 | 0.0 | 1.7 | 0.00 | 0.00 | 0.00 | 85 | 1014.8 |
| 20260505054304 | 47 | 351 | 0.0 | 1.7 | 0.00 | 0.00 | 0.00 | 85 | 1014.7 |
| 20260505053804 | 47 | 347 | 0.0 | 0.9 | 0.00 | 0.00 | 0.00 | 86 | 1014.7 |
| 20260505053304 | 47 | 12 | 0.0 | 0.9 | 0.00 | 0.00 | 0.00 | 86 | 1014.7 |
| 20260505052805 | 47 | 17 | 0.0 | 1.7 | 0.00 | 0.00 | 0.00 | 86 | 1014.8 |
| 20260505052305 | 47 | 320 | 0.0 | 0.9 | 0.00 | 0.00 | 0.00 | 85 | 1014.8 |
| 20260505051804 | 47 | 335 | 0.0 | 0.0 | 0.00 | 0.00 | 0.00 | 85 | 1014.8 |
| 20260505051305 | 47 | 321 | 0.0 | 0.9 | 0.00 | 0.00 | 0.00 | 85 | 1014.7 |
| 20260505050805 | 47 | 8 | 0.0 | 1.7 | 0.00 | 0.00 | 0.00 | 85 | 1014.8 |
| 20260505050305 | 47 | 15 | 0.0 | 1.7 | 0.00 | 0.00 | 0.00 | 84 | 1014.7 |
| 20260505041305 | 47 | 347 | 0.9 | 2.6 | 0.00 | 0.00 | 0.00 | 85 | 1014.4 |
| 20260505040805 | 47 | 349 | 0.0 | 2.6 | 0.00 | 0.00 | 0.00 | 85 | 1014.4 |
| 20260505040305 | 47 | 347 | 0.9 | 2.6 | 0.00 | 0.00 | 0.00 | 86 | 1014.3 |
| 20260505035805 | 47 | 359 | 0.9 | 3.5 | 0.00 | 0.00 | 0.00 | 86 | 1014.2 |
| 20260505035305 | 47 | 353 | 0.0 | 1.7 | 0.00 | 0.00 | 0.00 | 87 | 1014.3 |
| 20260505034805 | 47 | 342 | 0.9 | 2.6 | 0.00 | 0.00 | 0.00 | 87 | 1014.4 |
| 20260505034305 | 47 | 0 | 0.9 | 3.5 | 0.00 | 0.00 | 0.00 | 87 | 1014.3 |
| 20260505033805 | 47 | 349 | 0.0 | 1.7 | 0.00 | 0.00 | 0.00 | 88 | 1014.4 |
| 20260505033305 | 47 | 2 | 0.9 | 1.7 | 0.00 | 0.00 | 0.00 | 89 | 1014.5 |
| 20260505032805 | 47 | 357 | 0.9 | 1.7 | 0.00 | 0.00 | 0.00 | 89 | 1014.5 |
| 20260505032305 | 47 | 1 | 0.0 | 2.6 | 0.00 | 0.00 | 0.00 | 90 | 1014.6 |
| 20260505031805 | 47 | 311 | 0.0 | 1.7 | 0.00 | 0.00 | 0.00 | 90 | 1014.7 |
| 20260505031305 | 47 | 356 | 0.0 | 1.7 | 0.00 | 0.00 | 0.00 | 90 | 1014.6 |
| 20260505030805 | 47 | 323 | 0.0 | 1.7 | 0.00 | 0.00 | 0.00 | 90 | 1014.6 |
| 20260505030305 | 47 | 333 | 0.0 | 0.0 | 0.00 | 0.00 | 0.00 | 90 | 1014.6 |
| 20260505025805 | 47 | 333 | 0.0 | 0.0 | 0.00 | 0.00 | 0.00 | 90 | 1014.6 |
| 20260505025305 | 46 | 358 | 0.0 | 0.0 | 0.00 | 0.00 | 0.00 | 90 | 1014.8 |
| 20260505024805 | 46 | 358 | 0.0 | 0.0 | 0.00 | 0.00 | 0.00 | 90 | 1014.8 |
| 20260505024305 | 46 | 357 | 0.0 | 0.0 | 0.00 | 0.00 | 0.00 | 90 | 1014.7 |
| 20260505023805 | 46 | 356 | 0.0 | 0.0 | 0.00 | 0.00 | 0.00 | 90 | 1014.7 |
| 20260505023305 | 47 | 357 | 0.0 | 0.0 | 0.00 | 0.00 | 0.00 | 89 | 1014.7 |
| 20260505022805 | 47 | 357 | 0.0 | 0.0 | 0.00 | 0.00 | 0.00 | 89 | 1014.6 |
| 20260505022305 | 47 | 357 | 0.0 | 0.0 | 0.00 | 0.00 | 0.00 | 89 | 1014.5 |
| 20260505021805 | 47 | 357 | 0.0 | 2.6 | 0.00 | 0.00 | 0.00 | 90 | 1014.6 |
| 20260505021305 | 47 | 338 | 0.0 | 1.7 | 0.00 | 0.00 | 0.00 | 90 | 1014.5 |
| 20260505020805 | 47 | 348 | 0.0 | 1.7 | 0.00 | 0.00 | 0.00 | 90 | 1014.6 |
| 20260505020305 | 47 | 18 | 0.0 | 2.6 | 0.00 | 0.00 | 0.00 | 90 | 1014.6 |
| 20260505015805 | 47 | 355 | 0.0 | 1.7 | 0.00 | 0.00 | 0.00 | 90 | 1014.6 |
| 20260505015305 | 47 | 356 | 0.0 | 1.7 | 0.00 | 0.00 | 0.00 | 90 | 1014.6 |
| 20260505014805 | 47 | 354 | 0.0 | 1.7 | 0.00 | 0.00 | 0.00 | 90 | 1014.6 |
| 20260505014307 | 47 | 1 | 0.0 | 1.7 | 0.00 | 0.00 | 0.00 | 90 | 1014.7 |
| 20260505013805 | 47 | 349 | 0.0 | 1.7 | 0.00 | 0.00 | 0.00 | 89 | 1014.8 |
| 20260505013305 | 47 | 345 | 0.0 | 1.7 | 0.00 | 0.00 | 0.00 | 89 | 1014.9 |
| 20260505012805 | 47 | 3 | 0.0 | 0.9 | 0.00 | 0.00 | 0.00 | 89 | 1014.9 |
| 20260505012305 | 47 | 19 | 0.0 | 0.9 | 0.00 | 0.00 | 0.00 | 89 | 1015.0 |
| 20260505011805 | 47 | 20 | 0.0 | 0.9 | 0.00 | 0.00 | 0.00 | 89 | 1015.0 |
| 20260505011305 | 48 | 18 | 0.0 | 0.9 | 0.00 | 0.00 | 0.00 | 89 | 1014.9 |
| 20260505010805 | 48 | 335 | 0.0 | 0.9 | 0.00 | 0.00 | 0.00 | 88 | 1014.9 |
| 20260505010305 | 48 | 357 | 0.0 | 1.7 | 0.00 | 0.00 | 0.00 | 89 | 1015.0 |
| 20260505005805 | 48 | 349 | 0.0 | 0.9 | 0.00 | 0.00 | 0.00 | 88 | 1015.1 |
| 20260505005305 | 48 | 349 | 0.0 | 1.7 | 0.00 | 0.00 | 0.00 | 89 | 1014.9 |
| 20260505004805 | 48 | 359 | 0.0 | 0.9 | 0.00 | 0.00 | 0.00 | 88 | 1015.0 |
| 20260505004305 | 48 | 358 | 0.0 | 0.9 | 0.00 | 0.00 | 0.00 | 88 | 1015.1 |
| 20260505003805 | 48 | 4 | 0.0 | 0.9 | 0.00 | 0.00 | 0.00 | 88 | 1015.1 |
| 20260505003305 | 48 | 5 | 0.0 | 0.0 | 0.00 | 0.00 | 0.00 | 88 | 1015.1 |
| 20260505002805 | 48 | 5 | 0.0 | 0.0 | 0.00 | 0.00 | 0.00 | 88 | 1015.1 |
| 20260505002305 | 48 | 5 | 0.0 | 0.0 | 0.00 | 0.00 | 0.00 | 88 | 1015.2 |
| 20260505001805 | 48 | 5 | 0.0 | 0.0 | 0.00 | 0.00 | 0.00 | 88 | 1015.1 |
| 20260505001305 | 48 | 5 | 0.0 | 0.0 | 0.00 | 0.00 | 0.00 | 88 | 1015.2 |
| 20260505000805 | 48 | 5 | 0.0 | 0.0 | 0.00 | 0.00 | 0.00 | 88 | 1015.2 |
| 20260505000305 | 48 | 5 | 0.0 | 0.9 | 0.00 | 0.00 | 0.00 | 89 | 1015.2 |
| 20260504235805 | 48 | 5 | 0.0 | 0.9 | 0.00 | 0.00 | 0.00 | 89 | 1015.2 |
| 20260504235305 | 48 | 5 | 0.0 | 0.9 | 0.00 | 0.00 | 0.00 | 89 | 1015.3 |
| 20260504234805 | 48 | 5 | 0.0 | 0.9 | 0.00 | 0.00 | 0.00 | 89 | 1015.3 |
| 20260504234305 | 48 | 5 | 0.0 | 0.0 | 0.00 | 0.00 | 0.00 | 89 | 1015.3 |
| 20260504233805 | 48 | 5 | 0.0 | 0.0 | 0.00 | 0.00 | 0.00 | 89 | 1015.2 |
| 20260504233305 | 48 | 5 | 0.0 | 0.9 | 0.00 | 0.00 | 0.00 | 89 | 1015.1 |
| 20260504232805 | 48 | 5 | 0.0 | 0.0 | 0.00 | 0.00 | 0.00 | 89 | 1015.1 |
| 20260504232305 | 48 | 5 | 0.0 | 0.9 | 0.00 | 0.00 | 0.00 | 89 | 1015.1 |
| 20260504231805 | 48 | 5 | 0.0 | 0.9 | 0.00 | 0.00 | 0.00 | 89 | 1015.0 |
| 20260504231305 | 48 | 5 | 0.0 | 0.0 | 0.00 | 0.00 | 0.00 | 89 | 1015.0 |
| 20260504230805 | 49 | 5 | 0.0 | 0.0 | 0.00 | 0.00 | 0.00 | 89 | 1015.1 |
| 20260504230305 | 49 | 6 | 0.0 | 0.0 | 0.00 | 0.00 | 0.00 | 89 | 1015.0 |
| 20260504225805 | 49 | 330 | 0.0 | 1.7 | 0.00 | 0.00 | 0.00 | 89 | 1015.0 |
| 20260504225305 | 49 | 343 | 0.0 | 1.7 | 0.00 | 0.00 | 0.00 | 89 | 1015.1 |
| 20260504224805 | 49 | 343 | 0.0 | 0.9 | 0.00 | 0.00 | 0.00 | 89 | 1015.1 |
| 20260504224305 | 49 | 349 | 0.0 | 0.9 | 0.00 | 0.00 | 0.00 | 89 | 1015.2 |
| 20260504223805 | 49 | 342 | 0.0 | 0.9 | 0.00 | 0.00 | 0.00 | 89 | 1015.2 |
| 20260504223305 | 49 | 345 | 0.0 | 0.9 | 0.00 | 0.00 | 0.00 | 89 | 1015.2 |
| 20260504222805 | 49 | 345 | 0.0 | 0.9 | 0.00 | 0.00 | 0.00 | 89 | 1015.4 |
| 20260504222305 | 49 | 340 | 0.0 | 0.9 | 0.00 | 0.00 | 0.00 | 89 | 1015.4 |
| 20260504221805 | 49 | 301 | 0.0 | 0.9 | 0.00 | 0.00 | 0.00 | 89 | 1015.4 |
| 20260504221305 | 49 | 345 | 0.0 | 0.0 | 0.00 | 0.00 | 0.00 | 88 | 1015.5 |
| 20260504220805 | 49 | 346 | 0.0 | 1.7 | 0.00 | 0.00 | 0.00 | 88 | 1015.4 |
| 20260504220305 | 49 | 330 | 0.0 | 0.9 | 0.00 | 0.00 | 0.00 | 88 | 1015.3 |
| 20260504215805 | 49 | 333 | 0.0 | 0.9 | 0.00 | 0.00 | 0.00 | 88 | 1015.5 |
| 20260504215305 | 49 | 349 | 0.0 | 0.0 | 0.00 | 0.00 | 0.00 | 87 | 1015.4 |